Location: Blachownia
(50.7807°N, 18.9578°E)
Time: 21:23:18
(UTC+02:00)

ISS - Pass Details

Date: 30 January 2019
Orbit: 411 x 421 km, 51.6° (Epoch: 16 October)

Event Time Altitude Azimuth Distance (km) Brightness Sun altitude
Rises 18:53:38 0° 276° (W) 2,376 1.5 -22.4°
Reaches altitude 10° 18:55:44 10° 278° (W) 1,512 0.2 -22.7°
Enters shadow 18:58:19 48° 291° (WNW) 560 -2.8 -23.1°
